Flag for Germany Weather for the Past 2 Weeks in Garmisch-Partenkirchen, Bavaria, Germany

Now
43 °F

Passing clouds.


Feels Like: 43 °F
Forecast: 21 / 40 °F
Wind: 2 mph from North

Location: Innsbruck-Flughafen

Current Time: Feb 11, 2016 at 2:22:30 PM

Latest Report: Feb 11, 2016 at 1:50 PM


Visibility: N/A

Pressure: 29.74 "Hg (27.30 "Hg at 699m altitude)

Humidity: 36%

Dew point: 18 °F

Location of Garmisch-PartenkirchenLocation

Historic Weather in Garmisch-Partenkirchen — Graph

°F

Garmisch-Partenkirchen Temperature Yesterday

Maximum temperature yesterday: 45 °F (at 12:20 AM)
Minimum temperature yesterday: 30 °F (at 11:50 PM)
Average temperature yesterday: 36 °F

High & Low Weather Summary for the Past Weeks

 TemperatureHumidityPressure
High57 °F (Feb 1, 1:50 PM)100% (Jan 28, 3:20 AM)30.45 "Hg (Jan 28, 3:20 AM)
Low27 °F (Jan 28, 4:50 AM)39% (Feb 11, 12:50 PM)29.24 "Hg (Feb 9, 11:20 PM)
Average39 °F82%30.04 "Hg
* Reported Jan 27 12:20 PM — Feb 11 12:50 PM, Garmisch-Partenkirchen, Weather by CustomWeather, © 2016

Note: Actual official high and low records may vary slightly from our data, if they occured in-between our weather recording intervals... More about our weather records

Advertising

Garmisch-Partenkirchen Weather History for the Previous 24 Hours

 ConditionsComfort  
Time TempWeatherWind HumidityBarometerVisibility
12:50 PM
Thu, Feb 11
41 °FPassing clouds.3 mph39%29.77 "HgN/A
12:20 PM39 °FPassing clouds.2 mph45%29.77 "HgN/A
11:50 AM39 °FPassing clouds.2 mph42%29.77 "HgN/A
11:20 AM37 °FPassing clouds.2 mph48%29.80 "HgN/A
10:50 AM36 °FPassing clouds.5 mph52%29.80 "HgN/A
10:20 AM36 °FPassing clouds.6 mph52%29.80 "HgN/A
9:50 AM34 °FScattered clouds.2 mph56%29.80 "HgN/A
9:20 AM34 °FScattered clouds.2 mph65%29.80 "HgN/A
8:50 AM32 °FScattered clouds.2 mph75%29.80 "HgN/A
8:20 AM28 °FScattered clouds.2 mph80%29.80 "HgN/A
7:50 AM27 °FScattered clouds.No wind86%29.80 "HgN/A
7:20 AM28 °FPassing clouds.3 mph80%29.77 "HgN/A
6:50 AM28 °FPassing clouds.2 mph86%29.77 "HgN/A
6:20 AM27 °FPassing clouds.2 mph86%29.77 "HgN/A
5:50 AM27 °FPassing clouds.2 mph86%29.77 "HgN/A
5:20 AM28 °FPassing clouds.2 mph86%29.77 "HgN/A
4:50 AM28 °FPassing clouds.2 mph80%29.74 "Hg5 mi
4:20 AM28 °FPassing clouds.2 mph80%29.74 "HgN/A
3:20 AM27 °FPassing clouds.2 mph86%29.74 "Hg6 mi
2:50 AM28 °FPassing clouds.3 mph80%29.71 "HgN/A
2:20 AM28 °FPassing clouds.1 mph86%29.71 "Hg6 mi
1:50 AM28 °FPassing clouds.1 mph86%29.71 "HgN/A
1:20 AM28 °FChilly.2 mph86%29.71 "HgN/A
12:50 AM28 °FPassing clouds.2 mph86%29.68 "HgN/A
11:50 PM
Wed, Feb 10
30 °FPassing clouds.2 mph86%29.68 "HgN/A
10:50 PM32 °FPartly cloudy.3 mph75%29.65 "HgN/A
10:20 PM32 °FPassing clouds.5 mph75%29.65 "HgN/A
9:50 PM34 °FPassing clouds.2 mph70%29.65 "HgN/A
9:20 PM34 °FPartly cloudy.2 mph70%29.62 "HgN/A
8:50 PM36 °FPartly cloudy.3 mph65%29.62 "HgN/A
8:20 PM36 °FPartly cloudy.3 mph65%29.62 "HgN/A
7:50 PM36 °FPartly cloudy.5 mph65%29.59 "HgN/A
7:20 PM36 °FPartly cloudy.6 mph65%29.59 "HgN/A
6:50 PM37 °FPartly cloudy.9 mph60%29.56 "HgN/A
6:20 PM39 °FPartly cloudy.13 mph52%29.56 "HgN/A
5:50 PM39 °FPartly cloudy.15 mph48%29.56 "HgN/A
5:20 PM39 °FBroken clouds.17 mph48%29.53 "HgN/A
4:50 PM39 °FBroken clouds.18 mph48%29.50 "HgN/A
4:20 PM39 °FBroken clouds.13 mph48%29.50 "HgN/A
3:50 PM37 °FBroken clouds.5 mph81%29.50 "HgN/A
3:20 PM37 °FBroken clouds.7 mph81%29.50 "HgN/A
2:50 PM39 °FPassing clouds.9 mph75%29.50 "HgN/A
2:20 PM37 °FBroken clouds.10 mph87%29.50 "HgN/A
Weather by CustomWeather, © 2016

See weather overviewHow to use our weather pages